Location: Unspecified
(30.7333°N, 0.0000°E)
Time: 02:35:39
(UTC+00:00)

OAO 1 Rocket - Visible Passes

Search period start: 04 April 2026 00:00
Search period end: 14 April 2026 00:00
Orbit: 737 x 748 km, 35.0° (Epoch: 29 March)

Date Brightness Start Highest point End Pass type
(mag) Time Alt. Az. Time Alt. Az. Time Alt. Az.
4 Apr 4.6 20:00:59 10° WNW 20:06:13 62° N 20:07:25 48° ENE visible
4 Apr 7.2 21:46:36 10° WNW 21:47:01 12° WNW 21:47:01 12° WNW visible
5 Apr 4.8 19:12:46 10° WNW 19:17:58 56° N 19:21:55 17° E visible
5 Apr 5.7 20:58:23 10° WNW 21:01:32 36° W 21:01:32 36° W visible
6 Apr 4.2 20:10:11 10° WNW 20:15:29 90° SSW 20:16:03 72° ESE visible
7 Apr 4.4 19:21:59 10° WNW 19:27:17 77° NNE 19:30:35 23° E visible
7 Apr 6.3 21:07:48 10° W 21:10:12 24° W 21:10:12 24° W visible
8 Apr 4.8 20:19:28 10° W 20:24:34 49° SSW 20:24:46 49° SSW visible
9 Apr 4.6 19:31:13 10° WNW 19:36:27 63° SSW 19:39:23 26° SE visible
9 Apr 7.0 21:18:05 10° WSW 21:19:00 13° WSW 21:19:00 13° WSW visible
10 Apr 4.5 18:42:59 10° WNW 18:48:17 79° SSW 18:53:34 10° ESE visible
10 Apr 6.0 20:29:17 10° W 20:33:26 23° SSW 20:33:39 23° SSW visible
11 Apr 5.7 19:40:45 10° W 19:45:23 31° SSW 19:48:22 18° SSE visible
12 Apr 5.4 18:52:21 10° W 18:57:18 41° SSW 19:02:13 10° SE visible
13 Apr 6.7 19:51:34 10° WSW 19:54:08 14° SW 19:56:43 10° S visible
